When you browse on this site, cookies collect data to enhance your experience and personalize the content and advertising you see.
Visit our Privacy Policy to learn more. By continuing to use the site, you agree to this use of cookies and data.
  • In Schweiz
  • Länderverzeichnis
  • Für 7 Tage
  • Wassertemperatur
  • Wetterkarte
  • Widgets
  • user-avatar
    Anmelden

    Stündliche Wetter Helsinki

    Heute, 12 November, Dienstag

    Zeit Temperatur Niederschläge Wind Luftdruck Luftfeuchtigkeit
    00:00 -2°C° 0 mm 2 m/S 758 mmHg 87%
    01:00 -2°C° 0 mm 2 m/S 759 mmHg 87%
    02:00 -2°C° 0 mm 2 m/S 759 mmHg 87%
    03:00 +1°C° 0 mm 1 m/S 759 mmHg 86%
    04:00 +1°C° 0 mm 1 m/S 760 mmHg 86%
    05:00 +1°C° 0 mm 1 m/S 760 mmHg 85%
    06:00 +1°C° 0 mm 1 m/S 760 mmHg 86%
    07:00 +1°C° 0 mm 2 m/S 760 mmHg 86%
    08:00 +1°C° 0 mm 2 m/S 761 mmHg 84%
    09:00 +1°C° 0 mm 3 m/S 761 mmHg 85%
    10:00 +2°C° 0 mm 3 m/S 761 mmHg 85%
    11:00 +3°C° 0 mm 4 m/S 761 mmHg 86%
    12:00 +3°C° 0 mm 4 m/S 762 mmHg 87%
    13:00 +3°C° 0 mm 4 m/S 762 mmHg 88%
    14:00 +3°C° 0 mm 4 m/S 762 mmHg 89%
    15:00 +2°C° 0 mm 5 m/S 761 mmHg 88%
    16:00 +2°C° 0 mm 6 m/S 761 mmHg 88%
    17:00 +2°C° 0 mm 7 m/S 760 mmHg 87%
    18:00 +2°C° 0.3 mm 7 m/S 760 mmHg 88%
    19:00 +2°C° 0.3 mm 7 m/S 759 mmHg 89%
    20:00 +1°C° 0.3 mm 8 m/S 759 mmHg 89%
    21:00 +1°C° 0.8 mm 8 m/S 759 mmHg 89%
    22:00 +1°C° 0.8 mm 8 m/S 758 mmHg 89%
    23:00 +2°C° 0.8 mm 8 m/S 758 mmHg 89%

    Morgen, 13 November, Mittwoch

    Zeit Temperatur Niederschläge Wind Luftdruck Luftfeuchtigkeit
    00:00 +3°C° 0.5 mm 7 m/S 758 mmHg 90%
    01:00 +3°C° 0.5 mm 7 m/S 758 mmHg 91%
    02:00 +3°C° 0.5 mm 7 m/S 758 mmHg 91%
    03:00 +3°C° 0.4 mm 7 m/S 757 mmHg 91%
    04:00 +3°C° 0.4 mm 7 m/S 757 mmHg 90%
    05:00 +4°C° 0.4 mm 7 m/S 756 mmHg 89%
    06:00 +4°C° 0.4 mm 6 m/S 756 mmHg 90%
    07:00 +4°C° 0.4 mm 6 m/S 756 mmHg 91%
    08:00 +4°C° 0.4 mm 6 m/S 756 mmHg 92%
    09:00 +4°C° 0.3 mm 6 m/S 756 mmHg 93%
    10:00 +4°C° 0.3 mm 6 m/S 756 mmHg 93%
    11:00 +4°C° 0.3 mm 6 m/S 755 mmHg 93%
    12:00 +4°C° 0.3 mm 6 m/S 755 mmHg 93%
    13:00 +5°C° 0.3 mm 5 m/S 755 mmHg 94%
    14:00 +5°C° 0.3 mm 5 m/S 755 mmHg 94%
    15:00 +5°C° 0.8 mm 5 m/S 755 mmHg 95%
    16:00 +5°C° 0.8 mm 5 m/S 754 mmHg 96%
    17:00 +5°C° 0.8 mm 5 m/S 754 mmHg 96%
    18:00 +5°C° 1.5 mm 5 m/S 753 mmHg 96%
    19:00 +5°C° 1.5 mm 5 m/S 753 mmHg 96%
    20:00 +6°C° 1.5 mm 5 m/S 752 mmHg 96%
    21:00 +6°C° 1.2 mm 5 m/S 752 mmHg 96%
    22:00 +7°C° 1.2 mm 5 m/S 751 mmHg 95%
    23:00 +7°C° 1.2 mm 5 m/S 751 mmHg 94%

    übermorgen, 14 November, Donnerstag

    Zeit Temperatur Niederschläge Wind Luftdruck Luftfeuchtigkeit
    00:00 +8°C° 0.3 mm 5 m/S 751 mmHg 94%
    01:00 +8°C° 0.3 mm 6 m/S 751 mmHg 93%
    02:00 +9°C° 0.3 mm 6 m/S 751 mmHg 93%
    03:00 +8°C° 0.1 mm 5 m/S 751 mmHg 94%
    04:00 +8°C° 0.1 mm 5 m/S 751 mmHg 95%
    05:00 +8°C° 0.1 mm 4 m/S 752 mmHg 95%
    06:00 +9°C° 0 mm 3 m/S 752 mmHg 96%
    07:00 +8°C° 0 mm 3 m/S 753 mmHg 96%
    08:00 +8°C° 0 mm 2 m/S 753 mmHg 96%
    09:00 +8°C° 0.2 mm 3 m/S 753 mmHg 95%
    10:00 +8°C° 0.2 mm 4 m/S 753 mmHg 94%
    11:00 +8°C° 0.2 mm 5 m/S 753 mmHg 93%
    12:00 +8°C° 0.3 mm 6 m/S 753 mmHg 93%
    13:00 +8°C° 0.3 mm 6 m/S 753 mmHg 92%
    14:00 +9°C° 0.3 mm 6 m/S 753 mmHg 91%
    15:00 +9°C° 0.2 mm 6 m/S 753 mmHg 89%
    16:00 +9°C° 0.2 mm 7 m/S 752 mmHg 86%
    17:00 +10°C° 0.2 mm 7 m/S 752 mmHg 84%
    18:00 +10°C° 0.1 mm 7 m/S 753 mmHg 84%
    19:00 +9°C° 0.1 mm 7 m/S 753 mmHg 84%
    20:00 +9°C° 0.1 mm 7 m/S 754 mmHg 84%
    21:00 +9°C° 0 mm 7 m/S 755 mmHg 87%
    22:00 +9°C° 0 mm 6 m/S 756 mmHg 90%
    23:00 +8°C° 0 mm 6 m/S 757 mmHg 92%

    15 November, Freitag

    Zeit Temperatur Niederschläge Wind Luftdruck Luftfeuchtigkeit
    00:00 +8°C° 0 mm 6 m/S 758 mmHg 91%
    01:00 +7°C° 0 mm 5 m/S 759 mmHg 90%
    02:00 +7°C° 0 mm 5 m/S 760 mmHg 90%
    03:00 +6°C° 0 mm 4 m/S 760 mmHg 89%
    04:00 +6°C° 0 mm 4 m/S 761 mmHg 89%
    05:00 +7°C° 0 mm 3 m/S 762 mmHg 88%
    06:00 +7°C° 0 mm 3 m/S 762 mmHg 89%
    07:00 +6°C° 0 mm 2 m/S 763 mmHg 89%
    08:00 +6°C° 0 mm 2 m/S 764 mmHg 89%
    09:00 +6°C° 0 mm 2 m/S 764 mmHg 88%
    10:00 +6°C° 0 mm 2 m/S 765 mmHg 87%
    11:00 +6°C° 0 mm 2 m/S 765 mmHg 87%
    12:00 +7°C° 0 mm 1 m/S 766 mmHg 87%
    13:00 +7°C° 0 mm 1 m/S 766 mmHg 87%
    14:00 +7°C° 0 mm 1 m/S 766 mmHg 87%
    15:00 +6°C° 0 mm 2 m/S 766 mmHg 88%
    16:00 +5°C° 0 mm 2 m/S 766 mmHg 90%
    17:00 +3°C° 0 mm 3 m/S 766 mmHg 92%
    18:00 +3°C° 0 mm 3 m/S 766 mmHg 92%
    19:00 +3°C° 0 mm 3 m/S 766 mmHg 93%
    20:00 +3°C° 0 mm 3 m/S 767 mmHg 93%
    21:00 +3°C° 0 mm 3 m/S 767 mmHg 93%
    22:00 +4°C° 0 mm 4 m/S 767 mmHg 93%
    23:00 +4°C° 0 mm 4 m/S 767 mmHg 93%

    16 November, Samstag

    Zeit Temperatur Niederschläge Wind Luftdruck Luftfeuchtigkeit
    00:00 +4°C° 0 mm 4 m/S 767 mmHg 93%
    01:00 +4°C° 0 mm 4 m/S 766 mmHg 92%
    02:00 +4°C° 0 mm 4 m/S 766 mmHg 92%
    03:00 +3°C° 0 mm 5 m/S 766 mmHg 92%
    04:00 +5°C° 0 mm 5 m/S 766 mmHg 92%
    05:00 +5°C° 0 mm 5 m/S 765 mmHg 91%
    06:00 +5°C° 0 mm 5 m/S 765 mmHg 92%
    07:00 +5°C° 0 mm 5 m/S 765 mmHg 93%
    08:00 +5°C° 0 mm 5 m/S 765 mmHg 94%
    09:00 +5°C° 0 mm 5 m/S 765 mmHg 93%
    10:00 +5°C° 0 mm 5 m/S 765 mmHg 91%
    11:00 +5°C° 0 mm 5 m/S 765 mmHg 89%
    12:00 +5°C° 0 mm 5 m/S 764 mmHg 88%
    13:00 +4°C° 0 mm 6 m/S 764 mmHg 88%
    14:00 +4°C° 0 mm 6 m/S 763 mmHg 87%
    15:00 +3°C° 0 mm 6 m/S 763 mmHg 88%
    16:00 +3°C° 0 mm 6 m/S 763 mmHg 89%
    17:00 +3°C° 0 mm 5 m/S 763 mmHg 89%
    18:00 +3°C° 0 mm 5 m/S 763 mmHg 90%
    19:00 +3°C° 0 mm 5 m/S 763 mmHg 90%
    20:00 +3°C° 0 mm 5 m/S 763 mmHg 90%
    21:00 +3°C° 0 mm 5 m/S 763 mmHg 91%
    22:00 +3°C° 0 mm 5 m/S 763 mmHg 91%
    23:00 +3°C° 0 mm 5 m/S 763 mmHg 91%

    17 November, Sonntag

    Zeit Temperatur Niederschläge Wind Luftdruck Luftfeuchtigkeit
    00:00 +4°C° 0 mm 4 m/S 763 mmHg 92%
    01:00 +4°C° 0 mm 4 m/S 763 mmHg 92%
    02:00 +4°C° 0 mm 4 m/S 764 mmHg 92%
    03:00 +5°C° 0 mm 4 m/S 764 mmHg 93%
    04:00 +5°C° 0 mm 4 m/S 764 mmHg 94%
    05:00 +5°C° 0 mm 4 m/S 764 mmHg 95%
    06:00 +5°C° 0 mm 4 m/S 764 mmHg 95%
    07:00 +6°C° 0 mm 4 m/S 765 mmHg 96%
    08:00 +6°C° 0 mm 4 m/S 765 mmHg 96%
    09:00 +7°C° 0 mm 3 m/S 766 mmHg 96%
    10:00 +7°C° 0 mm 3 m/S 766 mmHg 95%
    11:00 +7°C° 0 mm 3 m/S 766 mmHg 95%
    12:00 +7°C° 0 mm 3 m/S 766 mmHg 95%
    13:00 +7°C° 0 mm 2 m/S 766 mmHg 94%
    14:00 +7°C° 0 mm 2 m/S 766 mmHg 94%
    15:00 +7°C° 0 mm 2 m/S 766 mmHg 94%
    16:00 +6°C° 0 mm 2 m/S 766 mmHg 95%
    17:00 +6°C° 0 mm 2 m/S 766 mmHg 95%
    18:00 +6°C° 0 mm 2 m/S 766 mmHg 96%
    19:00 +6°C° 0 mm 2 m/S 766 mmHg 96%
    20:00 +6°C° 0 mm 2 m/S 766 mmHg 97%
    21:00 +5°C° 0 mm 3 m/S 766 mmHg 97%
    22:00 +5°C° 0 mm 3 m/S 766 mmHg 97%
    23:00 +5°C° 0 mm 3 m/S 766 mmHg 97%
    Mehr zeigen